Location: Helion Bumpstead
(52.0500°N, 0.4000°E)
Time: 21:42:43
(UTC+00:00)

Meteor 2-5 Rocket - Pass Details

Date: 15 November 2025
Orbit: 832 x 911 km, 81.2° (Epoch: 06 December)

Event Time Altitude Azimuth Distance (km) Brightness Sun altitude
Exits shadow 05:02:05 37° 250° (WSW) 1,364 4.3 -20.8°
Maximum altitude 05:03:43 46° 291° (WNW) 1,187 4.0 -20.5°
Drops below altitude 10° 05:09:16 10° 4° (N) 2,538 6.2 -19.7°
Sets 05:11:48 0° 11° (N) 3,467 7.0 -19.3°
